When you browse on this site, cookies collect data to enhance your experience and personalize the content and advertising you see.
Visit our Privacy Policy to learn more. By continuing to use the site, you agree to this use of cookies and data.
  • In Romania
  • List of Countries
  • For 7 days
  • Water Temperature
  • Satellite Maps
  • Weather Map
  • Weather Widgets
  • user-avatar
    Login

    Hourly Weather Tulsa

    Today, 12 December, Wednesday

    Time Temperature Precipitation Wind Pressure Humidity
    00:00 +9°C° 0 mm 5 mps 743 mmHg 66%
    01:00 +8°C° 0 mm 4 mps 743 mmHg 69%
    02:00 +7°C° 0 mm 4 mps 743 mmHg 72%
    03:00 +7°C° 0 mm 3 mps 743 mmHg 76%
    04:00 +5°C° 0 mm 3 mps 743 mmHg 77%
    05:00 +6°C° 0 mm 2 mps 743 mmHg 78%
    06:00 +5°C° 0 mm 2 mps 743 mmHg 79%
    07:00 +5°C° 0 mm 2 mps 743 mmHg 77%
    08:00 +6°C° 0 mm 2 mps 742 mmHg 74%
    09:00 +7°C° 0 mm 1 mps 742 mmHg 72%
    10:00 +8°C° 0 mm 2 mps 742 mmHg 68%
    11:00 +10°C° 0 mm 3 mps 742 mmHg 65%
    12:00 +12°C° 0 mm 3 mps 741 mmHg 62%
    13:00 +13°C° 0 mm 4 mps 740 mmHg 62%
    14:00 +14°C° 0 mm 4 mps 740 mmHg 63%
    15:00 +14°C° 0 mm 5 mps 739 mmHg 64%
    16:00 +13°C° 0 mm 5 mps 738 mmHg 70%
    17:00 +13°C° 0 mm 5 mps 738 mmHg 75%
    18:00 +12°C° 0 mm 5 mps 738 mmHg 81%
    19:00 +12°C° 0 mm 5 mps 738 mmHg 83%
    20:00 +12°C° 0 mm 5 mps 737 mmHg 86%
    21:00 +12°C° 0 mm 5 mps 737 mmHg 88%
    22:00 +12°C° 0 mm 5 mps 736 mmHg 89%
    23:00 +12°C° 0 mm 5 mps 736 mmHg 91%

    Tomorrow, 13 December, Thursday

    Time Temperature Precipitation Wind Pressure Humidity
    00:00 +12°C° 0 mm 5 mps 736 mmHg 92%
    01:00 +12°C° 0 mm 4 mps 735 mmHg 93%
    02:00 +13°C° 0 mm 4 mps 735 mmHg 93%
    03:00 +13°C° 0 mm 3 mps 734 mmHg 94%
    04:00 +13°C° 0.1 mm 3 mps 734 mmHg 94%
    05:00 +13°C° 0.1 mm 2 mps 734 mmHg 95%
    06:00 +13°C° 0.1 mm 2 mps 734 mmHg 95%
    07:00 +13°C° 0.3 mm 2 mps 735 mmHg 95%
    08:00 +12°C° 0.3 mm 3 mps 735 mmHg 94%
    09:00 +13°C° 0.3 mm 3 mps 736 mmHg 93%
    10:00 +10°C° 0.7 mm 5 mps 736 mmHg 89%
    11:00 +9°C° 0.7 mm 7 mps 736 mmHg 85%
    12:00 +6°C° 0.7 mm 9 mps 737 mmHg 82%
    13:00 +6°C° 1 mm 10 mps 737 mmHg 81%
    14:00 +4°C° 1 mm 11 mps 737 mmHg 80%
    15:00 +3°C° 1 mm 12 mps 737 mmHg 80%
    16:00 +3°C° 1.4 mm 12 mps 737 mmHg 79%
    17:00 +1°C° 1.4 mm 13 mps 738 mmHg 79%
    18:00 +1°C° 1.4 mm 13 mps 738 mmHg 78%
    19:00 +1°C° 2.7 mm 13 mps 738 mmHg 78%
    20:00 +1°C° 2.7 mm 14 mps 739 mmHg 79%
    21:00 +1°C° 2.7 mm 14 mps 739 mmHg 79%
    22:00 +1°C° 1.7 mm 14 mps 739 mmHg 79%
    23:00 0°C° 1.7 mm 13 mps 739 mmHg 78%

    Day after tomorrow, 14 December, Friday

    Time Temperature Precipitation Wind Pressure Humidity
    00:00 0°C° 1.7 mm 13 mps 739 mmHg 78%
    01:00 0°C° 0.5 mm 13 mps 739 mmHg 77%
    02:00 0°C° 0.5 mm 13 mps 739 mmHg 75%
    03:00 0°C° 0.5 mm 13 mps 739 mmHg 73%
    04:00 0°C° 0.3 mm 13 mps 740 mmHg 72%
    05:00 -1°C° 0.3 mm 13 mps 740 mmHg 70%
    06:00 -1°C° 0.3 mm 12 mps 741 mmHg 69%
    07:00 -1°C° 0 mm 12 mps 742 mmHg 68%
    08:00 -1°C° 0 mm 12 mps 742 mmHg 66%
    09:00 -1°C° 0 mm 12 mps 743 mmHg 65%
    10:00 +1°C° 0.1 mm 11 mps 743 mmHg 62%
    11:00 +2°C° 0.1 mm 11 mps 743 mmHg 59%
    12:00 +3°C° 0.1 mm 11 mps 744 mmHg 55%
    13:00 +4°C° 0 mm 11 mps 743 mmHg 52%
    14:00 +6°C° 0 mm 10 mps 743 mmHg 48%
    15:00 +7°C° 0 mm 10 mps 743 mmHg 44%
    16:00 +6°C° 0 mm 9 mps 743 mmHg 45%
    17:00 +5°C° 0 mm 8 mps 744 mmHg 45%
    18:00 +3°C° 0 mm 6 mps 744 mmHg 46%
    19:00 +3°C° 0 mm 6 mps 745 mmHg 47%
    20:00 +2°C° 0 mm 6 mps 745 mmHg 49%
    21:00 +1°C° 0 mm 5 mps 745 mmHg 50%
    22:00 +1°C° 0 mm 5 mps 746 mmHg 52%
    23:00 0°C° 0 mm 5 mps 746 mmHg 55%

    15 December, Saturday

    Time Temperature Precipitation Wind Pressure Humidity
    00:00 0°C° 0 mm 5 mps 746 mmHg 57%
    01:00 0°C° 0 mm 5 mps 746 mmHg 60%
    02:00 -1°C° 0 mm 4 mps 746 mmHg 62%
    03:00 -1°C° 0 mm 4 mps 746 mmHg 65%
    04:00 -1°C° 0 mm 4 mps 746 mmHg 66%
    05:00 -1°C° 0 mm 3 mps 746 mmHg 68%
    06:00 -1°C° 0 mm 3 mps 746 mmHg 69%
    07:00 0°C° 0 mm 3 mps 747 mmHg 65%
    08:00 +1°C° 0 mm 3 mps 747 mmHg 62%
    09:00 +1°C° 0 mm 3 mps 747 mmHg 58%
    10:00 +4°C° 0 mm 2 mps 747 mmHg 51%
    11:00 +6°C° 0 mm 2 mps 747 mmHg 45%
    12:00 +8°C° 0 mm 2 mps 747 mmHg 38%
    13:00 +10°C° 0 mm 1 mps 747 mmHg 37%
    14:00 +11°C° 0 mm 1 mps 746 mmHg 35%
    15:00 +12°C° 0 mm 1 mps 746 mmHg 34%
    16:00 +10°C° 0 mm 1 mps 746 mmHg 39%
    17:00 +9°C° 0 mm 1 mps 747 mmHg 44%
    18:00 +6°C° 0 mm 0 mps 747 mmHg 48%
    19:00 +6°C° 0 mm 0 mps 747 mmHg 50%
    20:00 +7°C° 0 mm 1 mps 748 mmHg 51%
    21:00 +6°C° 0 mm 1 mps 748 mmHg 53%
    22:00 +6°C° 0 mm 1 mps 748 mmHg 55%
    23:00 +6°C° 0 mm 1 mps 748 mmHg 56%

    16 December, Sunday

    Time Temperature Precipitation Wind Pressure Humidity
    00:00 +5°C° 0 mm 1 mps 748 mmHg 58%
    01:00 +5°C° 0 mm 1 mps 748 mmHg 60%
    02:00 +5°C° 0 mm 1 mps 748 mmHg 61%
    03:00 +5°C° 0 mm 1 mps 748 mmHg 63%
    04:00 +5°C° 0 mm 1 mps 748 mmHg 64%
    05:00 +4°C° 0 mm 1 mps 749 mmHg 66%
    06:00 +3°C° 0 mm 0 mps 749 mmHg 67%
    07:00 +5°C° 0 mm 1 mps 749 mmHg 67%
    08:00 +6°C° 0 mm 1 mps 750 mmHg 66%
    09:00 +6°C° 0 mm 1 mps 750 mmHg 65%
    10:00 +8°C° 0 mm 1 mps 750 mmHg 60%
    11:00 +10°C° 0 mm 1 mps 750 mmHg 56%
    12:00 +11°C° 0 mm 1 mps 750 mmHg 51%
    13:00 +12°C° 0 mm 1 mps 750 mmHg 50%
    14:00 +13°C° 0 mm 1 mps 750 mmHg 48%
    15:00 +13°C° 0 mm 1 mps 749 mmHg 47%
    16:00 +12°C° 0 mm 1 mps 749 mmHg 52%
    17:00 +10°C° 0 mm 1 mps 750 mmHg 58%
    18:00 +9°C° 0 mm 1 mps 750 mmHg 63%
    19:00 +8°C° 0 mm 1 mps 750 mmHg 66%
    20:00 +8°C° 0 mm 1 mps 750 mmHg 68%
    21:00 +7°C° 0 mm 1 mps 750 mmHg 71%
    22:00 +7°C° 0 mm 1 mps 750 mmHg 73%
    23:00 +6°C° 0 mm 1 mps 750 mmHg 74%

    17 December, Monday

    Time Temperature Precipitation Wind Pressure Humidity
    00:00 +6°C° 0 mm 1 mps 750 mmHg 76%
    01:00 +6°C° 0 mm 1 mps 750 mmHg 77%
    02:00 +6°C° 0 mm 1 mps 750 mmHg 78%
    03:00 +5°C° 0 mm 1 mps 750 mmHg 80%
    04:00 +5°C° 0 mm 1 mps 750 mmHg 81%
    05:00 +5°C° 0 mm 1 mps 750 mmHg 82%
    06:00 +5°C° 0 mm 1 mps 750 mmHg 83%
    07:00 +5°C° 0 mm 1 mps 750 mmHg 80%
    08:00 +6°C° 0 mm 1 mps 750 mmHg 77%
    09:00 +6°C° 0 mm 1 mps 750 mmHg 75%
    10:00 +8°C° 0 mm 1 mps 750 mmHg 70%
    11:00 +9°C° 0 mm 1 mps 750 mmHg 65%
    12:00 +10°C° 0 mm 1 mps 750 mmHg 60%
    13:00 +11°C° 0 mm 1 mps 749 mmHg 59%
    14:00 +11°C° 0 mm 1 mps 749 mmHg 58%
    15:00 +12°C° 0 mm 1 mps 749 mmHg 57%
    16:00 +11°C° 0 mm 1 mps 749 mmHg 60%
    17:00 +10°C° 0 mm 1 mps 749 mmHg 64%
    18:00 +8°C° 0 mm 2 mps 749 mmHg 68%
    19:00 +8°C° 0 mm 2 mps 749 mmHg 70%
    20:00 +7°C° 0 mm 2 mps 749 mmHg 73%
    21:00 +7°C° 0 mm 2 mps 749 mmHg 76%
    22:00 +7°C° 0 mm 2 mps 749 mmHg 76%
    23:00 +7°C° 0 mm 2 mps 749 mmHg 76%
    Show more